Time,TemperatureF,DewpointF,PressureIn,WindDirection,WindDirectionDegrees,WindSpeedMPH,WindSpeedGustMPH,Humidity,HourlyPrecipIn,Conditions,Clouds,dailyrainin,SoftwareType,DateUTC
2013-03-25 00:03:00,28.0,20.0,30.03,North,8,10.0,17.0,70,0.00,,,0.00,,2013-03-25 05:03:00,
2013-03-25 00:12:00,28.0,20.0,30.03,North,8,10.0,17.0,70,0.00,,,0.00,,2013-03-25 05:12:00,
2013-03-25 00:22:00,27.0,19.0,30.04,North,7,9.0,15.0,70,0.00,,,0.00,,2013-03-25 05:22:00,
2013-03-25 00:32:00,26.0,18.0,30.04,North,2,8.0,11.0,71,0.00,,,0.00,,2013-03-25 05:32:00,
2013-03-25 00:42:00,26.0,18.0,30.04,North,2,8.0,11.0,71,0.00,,,0.00,,2013-03-25 05:42:00,
2013-03-25 00:52:00,26.0,18.0,30.03,North,356,7.0,12.0,72,0.00,,,0.00,,2013-03-25 05:52:00,
2013-03-25 01:02:00,26.0,18.0,30.03,North,356,7.0,12.0,72,0.00,,,0.00,,2013-03-25 06:02:00,
2013-03-25 01:12:00,26.0,18.0,30.03,North,356,7.0,12.0,72,0.00,,,0.00,,2013-03-25 06:12:00,
2013-03-25 01:22:00,25.0,18.0,30.04,NNW,344,6.0,11.0,73,0.00,,,0.00,,2013-03-25 06:22:00,
2013-03-25 01:32:00,24.0,17.0,30.03,NNW,331,7.0,10.0,74,0.00,,,0.00,,2013-03-25 06:32:00,
2013-03-25 01:42:00,24.0,17.0,30.03,NNW,331,7.0,10.0,74,0.00,,,0.00,,2013-03-25 06:42:00,
2013-03-25 01:52:00,24.0,17.0,30.03,NNW,331,7.0,10.0,74,0.00,,,0.00,,2013-03-25 06:52:00,
2013-03-25 02:02:00,24.0,17.0,30.03,NW,313,7.0,10.0,74,0.00,,,0.00,,2013-03-25 07:02:00,
2013-03-25 02:12:00,24.0,17.0,30.03,NW,313,7.0,10.0,74,0.00,,,0.00,,2013-03-25 07:12:00,
2013-03-25 02:22:00,24.0,17.0,30.03,NW,313,7.0,10.0,74,0.00,,,0.00,,2013-03-25 07:22:00,
2013-03-25 02:32:00,24.0,17.0,30.04,NW,310,7.0,9.0,74,0.00,,,0.00,,2013-03-25 07:32:00,
2013-03-25 02:42:00,24.0,17.0,30.04,NW,310,7.0,9.0,74,0.00,,,0.00,,2013-03-25 07:42:00,
2013-03-25 02:52:00,24.0,17.0,30.04,NW,307,8.0,10.0,74,0.00,,,0.00,,2013-03-25 07:52:00,
2013-03-25 03:02:00,23.0,16.0,30.04,NW,310,8.0,13.0,74,0.00,,,0.00,,2013-03-25 08:02:00,
2013-03-25 03:12:00,23.0,16.0,30.04,NW,310,8.0,13.0,74,0.00,,,0.00,,2013-03-25 08:12:00,
2013-03-25 03:22:00,23.0,16.0,30.04,NW,311,10.0,14.0,73,0.00,,,0.00,,2013-03-25 08:22:00,
2013-03-25 03:32:00,23.0,15.0,30.03,NW,309,11.0,16.0,72,0.00,,,0.00,,2013-03-25 08:32:00,
2013-03-25 03:42:00,23.0,15.0,30.03,NW,309,11.0,16.0,72,0.00,,,0.00,,2013-03-25 08:42:00,
2013-03-25 03:52:00,23.0,15.0,30.03,NW,315,11.0,16.0,72,0.00,,,0.00,,2013-03-25 08:52:00,
2013-03-25 04:02:00,23.0,15.0,30.03,NW,312,10.0,13.0,72,0.00,,,0.00,,2013-03-25 09:02:00,
2013-03-25 04:12:00,23.0,15.0,30.03,NW,312,10.0,13.0,72,0.00,,,0.00,,2013-03-25 09:12:00,
2013-03-25 04:22:00,23.0,15.0,30.03,NW,311,9.0,15.0,72,0.00,,,0.00,,2013-03-25 09:22:00,
2013-03-25 04:33:00,22.0,15.0,30.03,NW,318,9.0,12.0,73,0.00,,,0.00,,2013-03-25 09:33:00,
2013-03-25 04:43:00,22.0,15.0,30.03,NW,318,9.0,12.0,73,0.00,,,0.00,,2013-03-25 09:43:00,
2013-03-25 04:52:00,22.0,15.0,30.04,NW,320,9.0,12.0,73,0.00,,,0.00,,2013-03-25 09:52:00,
2013-03-25 05:03:00,22.0,15.0,30.04,NW,319,9.0,13.0,73,0.00,,,0.00,,2013-03-25 10:03:00,
2013-03-25 05:12:00,22.0,15.0,30.04,NW,319,9.0,13.0,73,0.00,,,0.00,,2013-03-25 10:12:00,
2013-03-25 05:22:00,22.0,15.0,30.04,NW,322,9.0,14.0,73,0.00,,,0.00,,2013-03-25 10:22:00,
2013-03-25 05:32:00,22.0,15.0,30.04,NW,319,8.0,11.0,73,0.00,,,0.00,,2013-03-25 10:32:00,
2013-03-25 05:42:00,22.0,15.0,30.04,NW,319,8.0,11.0,73,0.00,,,0.00,,2013-03-25 10:42:00,
2013-03-25 05:54:00,21.0,14.0,30.05,NW,323,7.0,11.0,74,0.00,,,0.00,,2013-03-25 10:54:00,
2013-03-25 06:03:00,21.0,14.0,30.05,NW,315,8.0,12.0,74,0.00,,,0.00,,2013-03-25 11:03:00,
2013-03-25 06:12:00,21.0,14.0,30.05,NW,315,8.0,12.0,74,0.00,,,0.00,,2013-03-25 11:12:00,
2013-03-25 06:23:00,21.0,14.0,30.06,NW,319,8.0,12.0,74,0.00,,,0.00,,2013-03-25 11:23:00,
2013-03-25 06:32:00,20.0,13.0,30.06,NW,322,8.0,11.0,74,0.00,,,0.00,,2013-03-25 11:32:00,
2013-03-25 06:42:00,20.0,13.0,30.06,NW,322,8.0,11.0,74,0.00,,,0.00,,2013-03-25 11:42:00,
2013-03-25 06:52:00,20.0,13.0,30.06,NW,321,8.0,11.0,74,0.00,,,0.00,,2013-03-25 11:52:00,
2013-03-25 07:02:00,20.0,13.0,30.06,NW,325,8.0,12.0,75,0.00,,,0.00,,2013-03-25 12:02:00,
2013-03-25 07:13:00,20.0,13.0,30.06,NW,325,8.0,12.0,75,0.00,,,0.00,,2013-03-25 12:13:00,
2013-03-25 07:32:00,19.0,12.0,30.08,NW,321,8.0,11.0,75,0.00,,,0.00,,2013-03-25 12:32:00,
2013-03-25 07:42:00,19.0,12.0,30.08,NW,321,8.0,11.0,75,0.00,,,0.00,,2013-03-25 12:42:00,
2013-03-25 07:53:00,19.0,12.0,30.08,NW,320,8.0,12.0,75,0.00,,,0.00,,2013-03-25 12:53:00,
2013-03-25 08:02:00,19.0,12.0,30.08,NW,319,8.0,12.0,75,0.00,,,0.00,,2013-03-25 13:02:00,
2013-03-25 08:13:00,19.0,12.0,30.08,NW,319,8.0,12.0,75,0.00,,,0.00,,2013-03-25 13:13:00,
2013-03-25 08:22:00,20.0,13.0,30.09,NW,319,9.0,12.0,74,0.00,,,0.00,,2013-03-25 13:22:00,
2013-03-25 08:32:00,21.0,14.0,30.09,NW,321,10.0,14.0,73,0.00,,,0.00,,2013-03-25 13:32:00,
2013-03-25 08:42:00,21.0,14.0,30.09,NW,321,10.0,14.0,73,0.00,,,0.00,,2013-03-25 13:42:00,
2013-03-25 08:52:00,21.0,13.0,30.09,NW,321,10.0,14.0,72,0.00,,,0.00,,2013-03-25 13:52:00,
2013-03-25 09:03:00,22.0,14.0,30.10,NW,322,11.0,16.0,71,0.00,,,0.00,,2013-03-25 14:03:00,
2013-03-25 09:12:00,22.0,14.0,30.10,NW,322,11.0,16.0,71,0.00,,,0.00,,2013-03-25 14:12:00,
2013-03-25 09:22:00,22.0,14.0,30.10,NW,322,11.0,16.0,71,0.00,,,0.00,,2013-03-25 14:22:00,
2013-03-25 09:32:00,23.0,14.0,30.10,NW,325,9.0,14.0,68,0.00,,,0.00,,2013-03-25 14:32:00,
2013-03-25 09:42:00,23.0,14.0,30.10,NW,325,9.0,14.0,68,0.00,,,0.00,,2013-03-25 14:42:00,
2013-03-25 09:53:00,24.0,15.0,30.11,NW,323,10.0,15.0,68,0.00,,,0.00,,2013-03-25 14:53:00,
2013-03-25 10:02:00,25.0,15.0,30.11,NW,316,10.0,14.0,65,0.00,,,0.00,,2013-03-25 15:02:00,
2013-03-25 10:12:00,25.0,15.0,30.11,NW,316,10.0,14.0,65,0.00,,,0.00,,2013-03-25 15:12:00,
2013-03-25 10:22:00,26.0,16.0,30.11,NW,326,10.0,14.0,65,0.00,,,0.00,,2013-03-25 15:22:00,
2013-03-25 10:32:00,26.0,15.0,30.12,NW,323,10.0,14.0,63,0.00,,,0.00,,2013-03-25 15:32:00,
2013-03-25 10:42:00,26.0,15.0,30.12,NW,323,10.0,14.0,63,0.00,,,0.00,,2013-03-25 15:42:00,
2013-03-25 10:52:00,28.0,16.0,30.12,NW,324,7.0,12.0,61,0.00,,,0.00,,2013-03-25 15:52:00,
2013-03-25 11:03:00,29.0,17.0,30.12,NW,324,7.0,11.0,61,0.00,,,0.00,,2013-03-25 16:03:00,
2013-03-25 11:12:00,29.0,17.0,30.12,NW,324,7.0,11.0,61,0.00,,,0.00,,2013-03-25 16:12:00,
2013-03-25 11:23:00,29.0,17.0,30.12,NW,324,7.0,11.0,61,0.00,,,0.00,,2013-03-25 16:23:00,
2013-03-25 11:33:00,31.0,18.0,30.12,NW,308,7.0,10.0,58,0.00,,,0.00,,2013-03-25 16:33:00,
2013-03-25 11:43:00,31.0,18.0,30.12,NW,308,7.0,10.0,58,0.00,,,0.00,,2013-03-25 16:43:00,
2013-03-25 11:52:00,32.0,19.0,30.12,NW,310,9.0,13.0,57,0.00,,,0.00,,2013-03-25 16:52:00,
2013-03-25 12:02:00,32.0,19.0,30.12,NW,313,9.0,14.0,58,0.00,,,0.00,,2013-03-25 17:02:00,
2013-03-25 12:12:00,32.0,19.0,30.12,NW,313,9.0,14.0,58,0.00,,,0.00,,2013-03-25 17:12:00,
2013-03-25 12:23:00,32.0,18.0,30.12,NW,320,9.0,15.0,55,0.00,,,0.00,,2013-03-25 17:23:00,
2013-03-25 12:42:00,33.0,18.0,30.12,NW,318,10.0,15.0,53,0.00,,,0.00,,2013-03-25 17:42:00,
2013-03-25 12:53:00,34.0,19.0,30.11,NNW,328,9.0,18.0,53,0.00,,,0.00,,2013-03-25 17:53:00,
2013-03-25 13:03:00,34.0,18.0,30.11,NW,316,13.0,17.0,52,0.00,,,0.00,,2013-03-25 18:03:00,
2013-03-25 13:12:00,34.0,18.0,30.11,NW,316,13.0,17.0,52,0.00,,,0.00,,2013-03-25 18:12:00,
2013-03-25 13:22:00,34.0,19.0,30.11,NNW,328,10.0,18.0,53,0.00,,,0.00,,2013-03-25 18:22:00,
2013-03-25 13:32:00,35.0,19.0,30.11,NNW,344,15.0,22.0,52,0.00,,,0.00,,2013-03-25 18:32:00,
2013-03-25 13:42:00,35.0,19.0,30.11,NNW,344,15.0,22.0,52,0.00,,,0.00,,2013-03-25 18:42:00,
2013-03-25 13:52:00,35.0,19.0,30.11,NNW,341,15.0,22.0,51,0.00,,,0.00,,2013-03-25 18:52:00,
2013-03-25 14:03:00,35.0,18.0,30.11,NNW,328,15.0,25.0,50,0.00,,,0.00,,2013-03-25 19:03:00,
2013-03-25 14:12:00,35.0,18.0,30.11,NNW,328,15.0,25.0,50,0.00,,,0.00,,2013-03-25 19:12:00,
2013-03-25 14:22:00,35.0,19.0,30.11,NNW,337,12.0,19.0,51,0.00,,,0.00,,2013-03-25 19:22:00,
2013-03-25 14:33:00,36.0,19.0,30.11,NW,319,14.0,23.0,49,0.00,,,0.00,,2013-03-25 19:33:00,
2013-03-25 14:42:00,36.0,19.0,30.11,NW,319,14.0,23.0,49,0.00,,,0.00,,2013-03-25 19:42:00,
2013-03-25 14:52:00,35.0,19.0,30.11,NNW,340,12.0,19.0,52,0.00,,,0.00,,2013-03-25 19:52:00,
2013-03-25 15:02:00,36.0,19.0,30.10,NNW,329,12.0,21.0,49,0.00,,,0.00,,2013-03-25 20:02:00,
2013-03-25 15:12:00,36.0,19.0,30.10,NNW,329,12.0,21.0,49,0.00,,,0.00,,2013-03-25 20:12:00,
2013-03-25 15:22:00,36.0,19.0,30.11,NW,326,11.0,22.0,50,0.00,,,0.00,,2013-03-25 20:22:00,
2013-03-25 15:32:00,36.0,19.0,30.11,NW,311,12.0,18.0,49,0.00,,,0.00,,2013-03-25 20:32:00,
2013-03-25 15:42:00,36.0,19.0,30.11,NW,311,12.0,18.0,49,0.00,,,0.00,,2013-03-25 20:42:00,
2013-03-25 15:52:00,36.0,19.0,30.11,NW,318,13.0,20.0,50,0.00,,,0.00,,2013-03-25 20:52:00,
2013-03-25 16:02:00,36.0,19.0,30.10,NW,313,11.0,18.0,49,0.00,,,0.00,,2013-03-25 21:02:00,
2013-03-25 16:12:00,36.0,19.0,30.10,NW,313,11.0,18.0,49,0.00,,,0.00,,2013-03-25 21:12:00,
2013-03-25 16:22:00,36.0,18.0,30.11,NNW,332,11.0,21.0,48,0.00,,,0.00,,2013-03-25 21:22:00,
2013-03-25 16:33:00,37.0,19.0,30.11,NNW,336,8.0,14.0,48,0.00,,,0.00,,2013-03-25 21:33:00,
2013-03-25 16:42:00,37.0,19.0,30.11,NNW,336,8.0,14.0,48,0.00,,,0.00,,2013-03-25 21:42:00,
2013-03-25 16:52:00,37.0,19.0,30.11,NNW,328,12.0,21.0,48,0.00,,,0.00,,2013-03-25 21:52:00,
2013-03-25 17:03:00,37.0,19.0,30.11,NW,319,13.0,21.0,47,0.00,,,0.00,,2013-03-25 22:03:00,
2013-03-25 17:12:00,37.0,19.0,30.11,NW,319,13.0,21.0,47,0.00,,,0.00,,2013-03-25 22:12:00,
2013-03-25 17:23:00,37.0,19.0,30.11,NW,310,12.0,17.0,47,0.00,,,0.00,,2013-03-25 22:23:00,
2013-03-25 17:33:00,37.0,20.0,30.11,NW,321,10.0,15.0,49,0.00,,,0.00,,2013-03-25 22:33:00,
2013-03-25 17:42:00,37.0,20.0,30.11,NW,321,10.0,15.0,49,0.00,,,0.00,,2013-03-25 22:42:00,
2013-03-25 17:52:00,37.0,21.0,30.12,NNW,346,7.0,13.0,51,0.00,,,0.00,,2013-03-25 22:52:00,
2013-03-25 18:02:00,37.0,21.0,30.12,NNW,346,7.0,13.0,51,0.00,,,0.00,,2013-03-25 23:02:00,
2013-03-25 18:12:00,37.0,21.0,30.12,NNW,346,7.0,13.0,51,0.00,,,0.00,,2013-03-25 23:12:00,
2013-03-25 18:23:00,36.0,21.0,30.13,North,2,9.0,16.0,53,0.00,,,0.00,,2013-03-25 23:23:00,
2013-03-25 18:32:00,36.0,20.0,30.13,NNE,13,8.0,12.0,52,0.00,,,0.00,,2013-03-25 23:32:00,
2013-03-25 18:43:00,36.0,20.0,30.13,NNE,13,8.0,12.0,52,0.00,,,0.00,,2013-03-25 23:43:00,
2013-03-25 18:53:00,36.0,20.0,30.13,NNE,13,8.0,12.0,52,0.00,,,0.00,,2013-03-25 23:53:00,
2013-03-25 19:02:00,35.0,20.0,30.14,North,11,6.0,9.0,55,0.00,,,0.00,,2013-03-26 00:02:00,
2013-03-25 19:12:00,35.0,20.0,30.14,North,11,6.0,9.0,55,0.00,,,0.00,,2013-03-26 00:12:00,
2013-03-25 19:22:00,35.0,20.0,30.15,North,11,5.0,8.0,55,0.00,,,0.00,,2013-03-26 00:22:00,
2013-03-25 19:32:00,34.0,20.0,30.16,North,4,3.0,6.0,57,0.00,,,0.00,,2013-03-26 00:32:00,
2013-03-25 19:42:00,34.0,20.0,30.16,North,4,3.0,6.0,57,0.00,,,0.00,,2013-03-26 00:42:00,
2013-03-25 19:52:00,34.0,20.0,30.16,North,2,4.0,7.0,57,0.00,,,0.00,,2013-03-26 00:52:00,
2013-03-25 20:02:00,34.0,21.0,30.16,North,356,3.0,6.0,58,0.00,,,0.00,,2013-03-26 01:02:00,
2013-03-25 20:12:00,34.0,21.0,30.16,North,356,3.0,6.0,58,0.00,,,0.00,,2013-03-26 01:12:00,
2013-03-25 20:22:00,34.0,21.0,30.16,North,356,3.0,6.0,58,0.00,,,0.00,,2013-03-26 01:22:00,
2013-03-25 20:32:00,34.0,21.0,30.17,North,349,2.0,3.0,58,0.00,,,0.00,,2013-03-26 01:32:00,
2013-03-25 20:42:00,34.0,21.0,30.17,North,349,2.0,3.0,58,0.00,,,0.00,,2013-03-26 01:42:00,
2013-03-25 20:52:00,34.0,21.0,30.17,North,349,1.0,2.0,59,0.00,,,0.00,,2013-03-26 01:52:00,
2013-03-25 21:02:00,34.0,21.0,30.17,North,349,1.0,3.0,58,0.00,,,0.00,,2013-03-26 02:02:00,
2013-03-25 21:12:00,34.0,21.0,30.17,North,349,1.0,3.0,58,0.00,,,0.00,,2013-03-26 02:12:00,
2013-03-25 21:22:00,33.0,20.0,30.17,North,349,1.0,3.0,58,0.00,,,0.00,,2013-03-26 02:22:00,
2013-03-25 21:32:00,34.0,21.0,30.17,NNW,346,2.0,4.0,59,0.00,,,0.00,,2013-03-26 02:32:00,
2013-03-25 21:42:00,34.0,21.0,30.17,NNW,346,2.0,4.0,59,0.00,,,0.00,,2013-03-26 02:42:00,
2013-03-25 21:52:00,33.0,20.0,30.18,NW,309,3.0,4.0,59,0.00,,,0.00,,2013-03-26 02:52:00,
2013-03-25 22:02:00,33.0,20.0,30.18,WNW,302,1.0,3.0,59,0.00,,,0.00,,2013-03-26 03:02:00,
2013-03-25 22:12:00,33.0,20.0,30.18,WNW,302,1.0,3.0,59,0.00,,,0.00,,2013-03-26 03:12:00,
2013-03-25 22:22:00,33.0,21.0,30.18,WNW,302,0.0,2.0,60,0.00,,,0.00,,2013-03-26 03:22:00,
2013-03-25 22:33:00,32.0,21.0,30.18,WNW,302,0.0,1.0,64,0.00,,,0.00,,2013-03-26 03:33:00,
2013-03-25 22:42:00,32.0,21.0,30.18,WNW,302,0.0,1.0,64,0.00,,,0.00,,2013-03-26 03:42:00,
2013-03-25 22:52:00,32.0,21.0,30.18,WNW,302,1.0,3.0,63,0.00,,,0.00,,2013-03-26 03:52:00,
2013-03-25 23:03:00,32.0,20.0,30.18,WNW,300,2.0,5.0,61,0.00,,,0.00,,2013-03-26 04:03:00,
2013-03-25 23:12:00,32.0,20.0,30.18,WNW,300,2.0,5.0,61,0.00,,,0.00,,2013-03-26 04:12:00,
2013-03-25 23:23:00,33.0,21.0,30.18,West,280,3.0,6.0,60,0.00,,,0.00,,2013-03-26 04:23:00,
2013-03-25 23:32:00,32.0,20.0,30.18,West,279,5.0,9.0,60,0.00,,,0.00,,2013-03-26 04:32:00,
2013-03-25 23:43:00,32.0,20.0,30.18,West,279,5.0,9.0,60,0.00,,,0.00,,2013-03-26 04:43:00,
2013-03-25 23:53:00,32.0,20.0,30.18,WNW,286,8.0,13.0,61,0.00,,,0.00,,2013-03-26 04:53:00,